Regional Weather Roundup
Issued by NWS Jackson, KY

Home | Current Version | Previous Version | Text Only | Print | Product List | Glossary On
Versions: 1 2 3 4 5 6 7 8 9 10 11 12 13 14 15 16 17 18 19 20 21 22 23 24 25 26 27
000
ASUS43 KJKL 300710
RWRJKL

EAST KENTUCKY HOURLY WEATHER ROUNDUP
NATIONAL WEATHER SERVICE JACKSON KY
300 AM EDT SAT JUL 30 2016

NOTE: "FAIR" INDICATES FEW OR NO CLOUDS BELOW 12,000 FEET WITH
NO SIGNIFICANT WEATHER AND/OR OBSTRUCTIONS TO VISIBILITY.

* THESE REPORTS ARE NOT UNDER NWS QUALITY CONTROL AND MAY NOT
  REPORT WEATHER SUCH AS PRECIPITATION AND FOG.

KYZ079-080-083-085-087-088-110-112-115-119-120-300800
...EASTERN KENTUCKY...

CITY           SKY/WX    TMP DP  RH WIND       PRES   REMARKS
JACKSON        MOCLDY    69  68  96 CALM      29.97F
LONDON         PTCLDY    70  67  90 CALM      29.96F
SOMERSET*      PTCLDY    70  70 100 CALM      29.95F
MONTICELLO*    CLOUDY   N/A N/A N/A N8        29.97F
WILLIAMSBURG*  MOSUNNY   70  70 100 SE6       29.97F
MIDDLESBORO*   CLOUDY    68  68 100 CALM      29.99F
HARLAN APT*      N/A     68  66  94 CALM      30.00F
PIKE CO APT*   FOG       67  67 100 CALM      29.98F VSB 1/4
MOREHEAD APT*  CLOUDY    72  70  94 S3        29.96F
ASHLAND*       CLOUDY    73  72  94 CALM      29.90F
$$

KYZ035-036-041-042-044-050-067-078-099-300800
...CENTRAL KENTUCKY...

CITY           SKY/WX    TMP DP  RH WIND       PRES   REMARKS
MT STERLING*   DRIZZLE   70  70 100 SW5       29.96F
FLEMING/MASON* PTCLDY    70  70  98 S7        29.93F
DANVILLE*      PTCLDY    70  70 100 CALM      29.95F
LEXINGTON      PTCLDY    71  69  93 S5        29.93F
FRANKFORT      CLOUDY    71  67  87 CALM      29.92F
LOUISVILLE     MOCLDY    74  71  91 W6        29.91S
LEBANON*       CLOUDY    73  73 100 CALM      29.94S FOG
GLASGOW*       PTCLDY    71  71 100 CALM      29.94S
BOWLING GREEN  MOCLDY    74  71  91 CALM      29.94S
$$

KYZ091>093-OHZ055-061-077-WVZ005-015-034-035-042-300800
...SOUTHERN OHIO/WEST VIRGINIA...

CITY           SKY/WX    TMP DP  RH WIND       PRES   REMARKS
COVINGTON      CLOUDY    70  69  97 SW3       29.91F
COLUMBUS       CLOUDY    71  69  93 E3        29.91F
DAYTON         MOCLDY    70  69  97 S6        29.93S
WILMINGTON     CLOUDY    69  68  96 CALM      29.92S
HUNTINGTON       N/A     72  70  93 SW5       29.93F
CHARLESTON       N/A     72  69  90 CALM      29.94F
PINEVILLE*     CLOUDY    69  66  91 MISG      30.06S FOG
BECKLEY        CLOUDY    66  65  96 CALM      30.04F
BLUEFIELD        N/A     65  62  90 SW5       30.07F
LOGAN CO APT*    N/A     68  68 100 CALM      29.98F
$$

VAZ002-007-008-TNZ017-027-036-066-071-300800
...SOUTHWEST VIRGINIA/EAST TENNESSEE...

CITY           SKY/WX    TMP DP  RH WIND       PRES   REMARKS
WISE*          FOG       64  64 100 SW5       30.07F VSB<1/4
JONESVILLE*      N/A     68  68 100 CALM      30.03F
ABINGDON*      CLOUDY    68  68 100 CALM      30.04F FOG
BRISTOL        FOG       69  68  96 CALM      30.02S VSB 1/4
MORRISTOWN*    CLOUDY    70  68  94 CALM      29.99F
SEVIERVILLE*   SUNNY     70  68  94 CALM      29.98F
KNOXVILLE      PTCLDY    73  69  87 SW3       29.97F
OAK RIDGE      CLOUDY    75  71  87 CALM      29.99S
CROSSVILLE     PTCLDY    71  69  93 CALM      30.02R
NASHVILLE      PTCLDY    74  70  87 CALM      29.95S
$$

...KEY TO REMARKS...
VSB - VISIBILITY IN MILES
WCI - WIND CHILL INDEX
HX  - HEAT INDEX

$$




USA.gov is the U.S. government's official web portal to all federal, state and local government web resources and services.